Wind_Speed
4 5 7 10 12 15 17 19 23 28 33 37 39 40 41 43 47 49 49 49 50 50 48 46 45 45 44 41 42 43 44 44 44 44 43 41 39 39 38 36 36 35 35 34
2 4 6 8 11 13 16 18 21 25 29 32 35 37 38 39 43 46 48 48 48 48 48 46 45 45 42 41 40 40 41 39 41 43 42 41 39 39 39 37 37 37 36 36
1 3 4 6 8 11 14 16 19 22 26 29 33 34 36 36 39 43 45 47 47 46 46 46 45 45 43 42 40 40 40 39 39 41 41 41 41 41 41 40 40 40 38 37
2 1 4 6 6 8 11 15 17 20 22 26 31 32 33 34 37 40 43 45 46 45 45 45 45 45 45 43 42 42 41 40 40 40 41 42 42 41 40 40 41 41 41 40
3 2 3 5 6 7 9 13 15 17 20 23 27 28 30 31 35 38 40 42 43 44 44 44 45 45 45 44 44 43 43 43 41 39 39 41 41 41 42 41 41 42 42 42
3 3 4 4 4 5 7 10 12 15 17 20 23 26 27 29 33 35 37 39 41 42 43 43 44 45 46 45 44 44 43 43 43 42 41 40 41 42 42 42 42 42 43 42
4 3 2 2 3 4 5 7 9 13 16 17 19 21 23 25 29 33 36 37 39 40 42 43 43 43 45 45 45 44 45 44 44 44 45 44 43 43 44 43 43 43 43 44
4 3 2 2 3 4 5 6 8 11 13 14 17 18 19 22 25 30 34 35 37 40 42 42 43 43 44 45 45 45 45 45 44 44 44 44 44 43 43 44 45 45 45 44
2 1 1 2 3 3 4 5 8 10 12 13 15 16 17 20 22 26 31 33 34 37 39 40 41 43 44 44 44 44 44 44 45 45 45 44 44 44 44 45 45 45 45 45
2 0 2 2 2 2 3 4 5 8 10 11 13 14 15 18 20 23 26 30 32 35 38 39 40 42 43 43 43 44 44 45 45 46 46 47 46 46 46 46 46 47 47 48
2 0 1 1 2 2 3 3 4 5 7 9 11 12 15 17 19 21 23 27 30 33 35 37 38 39 40 41 43 44 45 45 45 46 47 47 47 48 48 48 48 49 50 49
4 2 1 1 2 2 3 3 4 5 6 8 10 11 13 16 17 20 23 25 28 30 33 35 38 39 40 41 42 43 44 45 46 46 47 47 48 48 49 49 49 49 49 49
5 2 1 2 2 2 3 4 6 6 7 9 11 11 14 16 18 20 22 24 26 28 30 33 36 39 40 41 42 43 44 44 45 45 46 46 47 48 49 49 49 49 49 49
6 4 2 2 3 4 4 5 6 8 8 9 11 11 13 15 18 19 21 23 25 27 29 32 34 37 39 40 41 42 43 44 44 45 45 46 47 47 47 48 48 48 49 49
6 5 3 3 3 4 5 6 8 9 10 11 12 13 14 16 17 19 21 23 25 28 30 32 34 36 38 40 41 43 44 44 44 45 45 46 47 47 47 47 47 47 47 47
7 6 5 4 4 4 5 6 7 9 9 11 12 13 16 18 19 20 22 24 25 27 30 31 33 35 38 40 41 42 44 45 45 45 46 46 47 47 47 47 47 47 47 46
8 7 6 5 5 5 6 7 8 9 10 11 13 15 17 19 21 24 25 26 28 30 31 33 34 35 37 40 42 43 44 44 45 45 46 47 47 47 47 47 47 47 47 46
9 9 7 7 7 7 7 8 9 9 10 12 13 15 17 19 21 24 26 28 29 30 32 33 34 36 37 38 40 42 43 44 44 45 45 46 46 46 45 45 46 45 45 44
10 10 9 9 9 8 9 10 10 10 11 13 14 16 18 19 21 24 26 29 31 31 32 33 34 35 35 37 38 40 41 42 43 43 44 44 44 45 44 44 44 44 44 43
10 10 11 11 11 11 12 12 12 12 12 14 15 17 18 20 22 23 26 28 29 31 32 33 34 35 36 36 37 38 39 40 41 42 43 43 43 44 43 43 43 42 42 42
10 11 11 12 12 12 14 14 14 13 14 16 16 17 19 21 23 24 26 28 29 29 31 32 34 35 36 37 38 38 39 39 39 40 41 41 41 42 42 42 41 41 41 41
11 12 12 13 14 14 15 16 15 16 17 18 19 20 21 22 24 26 27 28 29 29 30 31 33 34 36 38 38 38 39 39 39 40 40 41 41 41 41 41 41 41 41 40
11 13 13 14 15 16 17 17 18 19 19 20 21 21 22 24 25 26 27 27 28 29 30 31 32 34 35 36 36 36 37 38 39 39 39 40 40 40 40 41 41 41 40 40
12 14 15 15 17 18 18 19 20 20 21 21 22 23 23 25 26 27 27 28 28 29 30 31 32 32 32 33 34 35 35 35 36 37 38 38 38 39 40 40 40 40 39 39
14 15 16 17 18 19 20 21 22 22 22 23 24 25 25 26 27 27 27 27 27 28 29 30 31 30 31 32 33 34 34 34 34 35 36 36 37 38 38 38 38 38 38 38
15 16 17 18 20 21 22 23 23 24 24 25 26 27 27 28 28 28 27 27 27 28 29 29 29 30 31 32 32 32 33 33 33 34 34 35 35 36 37 37 36 36 37 36
Wind_Direction
289 234 209 207 212 217 220 217 213 210 211 213 212 212 214 214 214 213 213 216 219 221 221 223 225 225 226 227 228 228 226 226 226 227 228 229 231 234 235 238 242 243 246 249
288 222 207 211 216 220 221 214 210 210 211 214 215 216 215 215 215 215 215 216 219 223 224 226 227 228 228 230 229 229 229 230 230 230 230 232 234 235 238 241 243 246 248 250
15 216 205 212 213 219 218 215 213 212 214 216 216 217 216 217 217 218 217 218 220 222 225 228 229 229 229 231 231 232 233 232 231 231 232 235 236 238 241 243 246 248 250 253
46 178 201 208 213 215 216 216 216 218 220 219 220 221 220 220 220 220 220 220 222 224 226 228 229 231 233 233 233 235 236 236 236 237 237 238 240 241 243 246 248 250 252 254
42 92 172 193 202 209 211 215 221 225 226 225 223 226 225 222 221 223 224 224 225 226 228 230 233 235 236 237 236 237 240 240 240 240 242 243 244 244 246 248 250 252 252 255
49 108 140 168 183 201 211 217 225 230 229 231 228 231 231 228 227 226 227 227 227 229 231 232 235 237 238 239 240 240 241 242 244 244 245 247 248 247 248 249 251 253 255 256
52 92 134 177 199 207 216 221 227 231 235 235 232 234 234 232 231 229 228 230 231 232 234 234 235 237 239 242 244 244 245 245 246 247 249 250 251 251 251 251 253 255 258 260
37 66 106 163 210 226 225 226 234 240 242 240 237 238 239 240 237 234 233 233 234 235 235 235 237 237 239 241 243 245 246 246 247 248 250 250 251 252 253 254 255 258 261 263
23 86 141 174 203 217 211 225 239 249 248 242 239 241 242 243 243 241 239 237 238 236 235 237 239 238 239 241 242 244 246 247 248 249 250 250 252 253 255 256 257 259 262 263
10 162 193 199 207 210 205 222 233 243 246 246 240 241 242 242 242 243 244 244 242 241 238 238 240 241 241 241 243 244 246 247 249 250 250 251 253 254 255 257 258 259 261 263
19 356 197 196 216 217 208 222 235 239 242 240 240 241 244 245 244 245 246 246 246 245 244 242 241 243 244 244 245 245 247 248 249 250 252 253 254 255 255 257 258 259 261 264
21 10 210 219 229 229 230 239 242 248 246 240 244 247 246 247 246 246 246 247 247 247 247 247 246 246 246 247 247 247 248 249 250 251 253 254 255 256 257 258 259 260 262 264
24 16 324 243 240 246 248 259 262 263 261 255 251 254 252 251 251 251 249 249 248 248 248 248 249 249 248 248 249 248 249 250 251 252 253 255 256 257 258 259 259 260 262 264
20 14 352 311 277 268 272 273 275 276 273 268 261 256 254 255 254 253 253 252 250 249 249 249 249 248 249 249 250 250 250 251 252 253 254 255 255 257 258 259 260 261 263 265
13 1 340 325 314 299 291 288 286 282 273 272 268 260 255 258 260 259 258 258 255 252 252 251 250 250 249 249 250 251 252 252 253 254 255 256 257 257 259 260 262 263 264 266
10 2 346 327 321 316 309 302 298 292 281 273 271 267 263 263 265 266 266 264 260 257 255 255 253 253 251 251 251 252 253 253 254 254 255 257 258 259 260 261 262 263 265 266
15 8 360 341 328 323 321 312 304 299 290 278 274 271 269 269 268 269 268 266 263 260 259 258 257 256 255 254 253 253 253 254 254 255 256 257 258 259 260 260 262 263 264 265
13 7 1 351 337 333 326 320 316 306 297 291 283 279 279 277 274 272 271 269 266 264 262 260 259 258 257 256 255 255 254 254 255 256 256 257 258 259 259 260 261 262 263 265
5 1 356 349 339 331 329 325 320 313 302 298 292 286 283 283 280 279 278 275 272 268 265 263 261 260 261 260 258 257 256 256 256 256 257 256 257 258 259 260 261 261 263 264
359 356 351 348 341 334 332 327 323 318 309 303 297 293 292 290 286 283 281 279 275 272 269 266 264 263 262 261 261 260 259 258 258 258 258 258 258 258 259 259 260 261 262 264
354 353 351 347 344 340 337 330 325 321 318 312 306 299 295 294 292 288 286 283 280 276 272 268 265 265 264 263 263 263 261 261 260 259 259 259 258 258 258 259 260 261 262 264
348 349 348 345 343 339 336 331 328 324 321 318 313 307 303 299 296 293 290 287 284 280 276 272 270 268 267 266 265 264 262 261 261 260 260 259 258 258 258 259 260 261 262 264
341 343 342 341 338 335 334 331 329 326 323 321 318 315 311 305 303 299 295 291 288 284 281 277 273 272 271 269 267 266 264 262 262 262 261 261 259 258 258 259 261 262 263 264
334 338 337 333 332 331 330 329 327 326 324 322 320 318 315 311 307 304 301 296 292 288 284 281 279 276 272 270 268 267 266 265 264 262 261 261 260 258 258 260 261 262 263 263
328 333 334 332 331 329 327 326 325 323 323 322 321 320 318 315 312 308 305 300 296 292 288 286 282 276 273 271 269 269 267 265 265 264 263 262 260 258 259 260 261 262 262 263
323 328 331 331 330 329 326 324 322 321 321 321 320 320 318 317 315 312 308 305 301 296 292 289 285 279 275 272 271 269 267 266 265 264 263 261 259 258 258 259 260 261 262 263
Height
5608 5609 5609 5611 5613 5616 5618 5622 5626 5631 5637 5644 5651 5659 5666 5673 5680 5688 5697 5704 5712 5719 5726 5732 5737 5744 5750 5755 5761 5766 5771 5776 5780 5784 5788 5791 5795 5798 5801 5804 5806 5808 5810 5812
5610 5610 5611 5612 5613 5616 5618 5622 5626 5631 5636 5642 5649 5655 5663 5669 5676 5684 5691 5699 5706 5713 5720 5726 5732 5737 5743 5748 5753 5758 5764 5769 5774 5778 5781 5785 5788 5791 5794 5796 5798 5800 5802 5803
5612 5613 5612 5613 5615 5617 5619 5623 5627 5631 5635 5641 5647 5653 5660 5666 5672 5679 5687 5694 5700 5707 5714 5720 5726 5731 5737 5742 5746 5751 5756 5761 5766 5770 5773 5777 5780 5783 5785 5788 5791 5792 5794 5795
5614 5614 5614 5615 5616 5618 5621 5624 5627 5631 5635 5640 5646 5651 5658 5663 5669 5675 5682 5689 5695 5702 5708 5714 5720 5725 5730 5734 5739 5744 5749 5753 5758 5761 5765 5768 5772 5775 5778 5780 5782 5784 5785 5787
5616 5616 5616 5617 5618 5620 5622 5625 5628 5632 5635 5640 5644 5649 5656 5660 5666 5672 5677 5683 5690 5696 5702 5708 5713 5718 5723 5727 5731 5736 5741 5745 5749 5753 5757 5761 5763 5766 5769 5771 5773 5775 5777 5778
5619 5618 5618 5619 5620 5622 5624 5626 5629 5632 5635 5640 5644 5648 5653 5657 5662 5668 5673 5678 5684 5690 5695 5701 5706 5711 5715 5719 5724 5729 5733 5737 5741 5745 5748 5751 5754 5757 5760 5762 5764 5765 5767 5769
5621 5620 5620 5620 5622 5624 5626 5628 5630 5632 5635 5639 5643 5646 5651 5654 5658 5663 5668 5673 5678 5684 5689 5694 5699 5703 5708 5712 5716 5720 5725 5729 5733 5736 5739 5742 5745 5748 5750 5753 5754 5756 5758 5759
5622 5622 5622 5622 5623 5625 5626 5629 5632 5633 5635 5639 5642 5645 5650 5652 5655 5658 5663 5667 5672 5676 5681 5686 5691 5696 5700 5704 5708 5712 5716 5720 5724 5727 5730 5733 5735 5738 5741 5743 5745 5746 5747 5749
5623 5624 5624 5624 5625 5626 5627 5629 5631 5633 5634 5637 5640 5644 5648 5649 5652 5654 5658 5662 5665 5669 5674 5679 5683 5688 5692 5696 5700 5703 5707 5711 5714 5717 5720 5723 5725 5728 5730 5733 5735 5736 5737 5738
5624 5625 5625 5626 5626 5627 5628 5629 5631 5632 5633 5635 5639 5641 5645 5647 5649 5651 5654 5656 5659 5662 5667 5671 5676 5680 5684 5688 5692 5695 5698 5701 5704 5707 5710 5713 5715 5718 5720 5722 5724 5725 5727 5728
5625 5625 5626 5626 5626 5627 5629 5630 5630 5631 5633 5635 5637 5642 5642 5643 5645 5647 5649 5651 5654 5656 5660 5664 5669 5672 5676 5679 5683 5686 5689 5692 5694 5697 5700 5703 5705 5707 5709 5711 5713 5714 5716 5717
5626 5626 5625 5626 5626 5627 5628 5629 5630 5632 5633 5634 5635 5641 5639 5640 5641 5643 5644 5646 5648 5651 5653 5657 5661 5664 5667 5670 5673 5676 5679 5682 5684 5687 5690 5692 5694 5696 5698 5700 5702 5703 5704 5705
5627 5626 5626 5626 5629 5628 5628 5628 5629 5630 5631 5632 5633 5638 5636 5637 5638 5638 5640 5641 5643 5645 5647 5650 5653 5655 5658 5661 5664 5666 5669 5672 5674 5677 5679 5681 5683 5685 5687 5689 5690 5692 5693 5694
5627 5627 5627 5628 5627 5626 5627 5628 5628 5629 5629 5630 5631 5633 5633 5633 5633 5634 5635 5636 5637 5638 5640 5642 5644 5647 5649 5651 5654 5657 5659 5661 5664 5666 5668 5670 5672 5674 5676 5677 5679 5680 5681 5682
5628 5627 5626 5626 5626 5626 5626 5626 5626 5626 5627 5628 5629 5629 5629 5629 5629 5630 5630 5630 5631 5632 5633 5635 5636 5638 5640 5642 5645 5647 5649 5651 5653 5656 5658 5659 5661 5662 5664 5666 5667 5669 5670 5671
5628 5627 5626 5626 5625 5625 5625 5625 5625 5625 5624 5625 5625 5626 5625 5625 5625 5625 5625 5625 5625 5625 5626 5627 5628 5630 5631 5633 5635 5637 5639 5641 5643 5645 5646 5648 5650 5651 5653 5654 5656 5657 5658 5659
5628 5627 5626 5626 5625 5625 5625 5625 5624 5623 5622 5622 5622 5623 5621 5621 5621 5620 5619 5619 5618 5618 5619 5619 5620 5620 5622 5623 5625 5626 5628 5630 5632 5633 5635 5636 5638 5640 5641 5643 5644 5645 5647 5647
5628 5627 5626 5625 5625 5624 5626 5622 5622 5621 5620 5619 5618 5618 5617 5616 5615 5614 5613 5612 5612 5611 5611 5611 5611 5612 5612 5613 5614 5616 5617 5619 5620 5622 5623 5625 5626 5628 5629 5631 5633 5634 5635 5636
5628 5627 5625 5624 5623 5622 5622 5620 5619 5618 5617 5615 5614 5613 5612 5610 5609 5608 5606 5605 5604 5603 5602 5602 5602 5603 5603 5603 5604 5605 5606 5607 5608 5610 5611 5613 5614 5616 5618 5620 5621 5622 5623 5624
5627 5626 5625 5623 5621 5620 5621 5618 5615 5615 5614 5612 5610 5608 5606 5605 5603 5602 5599 5597 5595 5594 5593 5593 5593 5593 5593 5593 5594 5594 5595 5596 5597 5598 5599 5601 5603 5605 5607 5608 5610 5611 5612 5613
5627 5625 5623 5621 5619 5618 5617 5614 5613 5612 5611 5607 5605 5603 5601 5598 5596 5594 5591 5589 5587 5585 5584 5583 5583 5583 5583 5583 5583 5583 5584 5585 5585 5586 5588 5589 5591 5593 5594 5596 5598 5599 5601 5602
5626 5624 5622 5620 5618 5619 5614 5611 5610 5608 5604 5602 5599 5597 5594 5592 5588 5586 5583 5580 5578 5576 5575 5574 5573 5573 5572 5572 5571 5572 5572 5573 5574 5575 5576 5577 5579 5581 5582 5584 5586 5588 5589 5590
5624 5623 5621 5619 5619 5614 5611 5608 5606 5603 5600 5597 5594 5591 5588 5585 5581 5578 5575 5572 5569 5567 5565 5564 5563 5562 5561 5560 5560 5560 5560 5561 5562 5563 5564 5565 5567 5569 5571 5573 5574 5576 5577 5578
5622 5620 5618 5616 5613 5611 5608 5605 5602 5599 5596 5593 5589 5586 5582 5578 5574 5570 5567 5564 5561 5559 5556 5554 5553 5552 5551 5550 5549 5549 5549 5549 5550 5551 5552 5553 5555 5557 5559 5561 5562 5564 5565 5566
5620 5617 5615 5613 5610 5607 5604 5601 5598 5594 5591 5587 5584 5580 5576 5571 5567 5563 5559 5556 5553 5550 5547 5545 5543 5542 5541 5540 5539 5539 5539 5539 5539 5540 5540 5542 5543 5545 5547 5549 5551 5552 5554 5555
5617 5615 5612 5610 5607 5604 5601 5597 5593 5590 5586 5582 5578 5574 5569 5565 5560 5556 5552 5548 5545 5542 5539 5537 5534 5532 5531 5530 5529 5529 5528 5529 5529 5529 5530 5530 5532 5534 5536 5538 5539 5540 5542 5543